Simultaneous Nadir Overpasses (SNOs) Predictions

Prediction of SNOs between NOAA-19 and NPP Satellite Orbit:

Table of predicted SNOs for the next 14.0 days since TLE Epoch: 12/24/2022
Index Date (NOAA-19) Time (NOAA-19) Lat,Lon (NOAA-19) SZA (NOAA-19 ) Date (NPP) Time (NPP) Lat,Lon (NPP) SZA (NPP ) Distance(km) Time Diff (sec)
1 12/31/2022 18:31:10 75.48,-116.02 99.19 12/31/2022 18:32:15 75.49,-112.77 98.96 90.63 65
2 12/31/2022 19:22:05 -75.97, 52.90 80.46 12/31/2022 19:23:10 -75.99, 52.93 80.47 1.90 65
3 12/31/2022 20:12:58 76.00,-139.71 99.56 12/31/2022 20:13:56 76.00,-139.81 99.55 2.79 58
4 12/31/2022 21:04:04 -76.00, 27.49 80.45 12/31/2022 21:04:40 -75.99, 27.55 80.47 1.72 36
5 12/31/2022 21:54:57 76.03,-165.12 99.57 12/31/2022 21:55:26 76.00,-165.19 99.55 3.11 29
6 12/31/2022 22:46:03 -76.02, 2.08 80.44 12/31/2022 22:46:11 -76.04, 2.02 80.42 2.55 8
7 12/31/2022 23:36:57 76.01, 169.31 99.55 12/31/2022 23:36:56 76.01, 169.43 99.55 3.18 1
8 01/01/2023 00:28:02 -76.04, -23.32 80.43 01/01/2023 00:27:41 -76.04, -23.36 80.43 1.26 21
9 01/01/2023 01:18:56 76.03, 143.90 99.57 01/01/2023 01:18:27 76.05, 143.89 99.60 2.54 29
10 01/01/2023 02:10:01 -76.07, -48.73 80.42 01/01/2023 02:09:11 -76.04, -48.74 80.43 3.29 50
11 01/01/2023 03:00:55 76.05, 118.50 99.58 01/01/2023 02:59:57 76.05, 118.52 99.59 0.53 58
12 01/01/2023 03:51:57 -76.22, -73.64 80.31 01/01/2023 03:50:45 -76.22, -74.75 80.22 29.34 72
13 01/01/2023 04:42:43 76.56, 94.95 99.94 01/01/2023 04:41:38 76.55, 91.34 100.19 93.39 65



Historial Predications of SNOs between NOAA-19 and NPP
